Regional Weather Roundup
Issued by NWS Kansas City/Pleasant Hill, MO

Home | Current Version | Previous Version | Text Only | Print | Product List | Glossary On
Versions: 1 2 3 4 5 6 7 8 9 10 11 12 13 14 15 16 17 18 19 20 21 22 23 24 25 26 27 28 29 30 31 32 33 34 35 36 37 38 39 40 41 42 43 44 45 46 47 48 49 50
000
ASUS43 KEAX 010610
RWREAX

WEATHER ROUNDUP FOR EASTERN KANSAS AND NORTHWEST MISSOURI
NATIONAL WEATHER SERVICE KANSAS CITY/PLEASANT HILL MO
100 AM CDT SAT AUG 01 2015

KSZ040-057-103>105-MOZ028-029-037-043-010700-
...KANSAS CITY METROPOLITAN AREA...

CITY           SKY/WX    TMP DP  RH WIND       PRES   REMARKS
K.C. INTL      MOCLDY    79  65  62 CALM      30.08S
6HR MIN TEMP:  73; 6HR MAX TEMP:  86;

K.C. DOWNTOWN  CLEAR     79  71  76 CALM      30.06F
6HR MIN TEMP:  77; 6HR MAX TEMP:  88;

LEES SUMMIT    PTCLDY    74  66  76 NE5       30.09S
6HR MIN TEMP:  72; 6HR MAX TEMP:  89;

OLATHE - IXD   CLEAR     72  67  84 S6        30.09R
6HR MIN TEMP:  72; 6HR MAX TEMP:  87;

OLATHE - OJC   CLEAR     74  66  76 CALM      30.08S
6HR MIN TEMP:  73; 6HR MAX TEMP:  87;

LAWRENCE       CLEAR     69  67  93 CALM      30.07S

$$

MOZ001>008-011>017-020>025-030>033-038>040-044>046-053-054-010700-
...NORTHERN AND CENTRAL MISSOURI...

CITY           SKY/WX    TMP DP  RH WIND       PRES   REMARKS
ST. JOSEPH     MOCLDY    73  70  90 SE5       30.06F
6HR MIN TEMP:  73; 6HR MAX TEMP:  88;

MOSBY          PTCLDY    72  72 100 CALM      30.07S
WARRENSBURG    PTCLDY    70  68  94 CALM      30.08R
WHITEMAN AFB   CLEAR     73  67  80 W5        30.07R
6HR MIN TEMP:  71; 6HR MAX TEMP:  89;

CLINTON        CLEAR     70  70 100 CALM      30.08S
SEDALIA        CLEAR     71  66  84 CALM      30.09R
6HR MIN TEMP:  71; 6HR MAX TEMP:  88;

WARSAW         NOT AVBL
CHILLICOTHE      N/A     77  72  84 CALM      30.07F
6HR MIN TEMP:  76; 6HR MAX TEMP:  89;

KIRKSVILLE     CLOUDY    74  70  87 CALM      30.08S
6HR MIN TEMP:  73; 6HR MAX TEMP:  83;


$$

MOZ041-047>049-056>058-063>065-088>090-097-010700-
...EASTERN AND SOUTHERN MISSOURI...

CITY           SKY/WX    TMP DP  RH WIND       PRES   REMARKS
ST. LOUIS INTL FAIR      78  67  68 CALM      30.06S
6HR MIN TEMP:  78; 6HR MAX TEMP:  89;

SPIRIT OF STL  PTCLDY    71  69  93 CALM      30.04S
COLUMBIA       MOCLDY    75  68  78 CALM      30.08R
JEFFERSON CITY PTCLDY    71  68  90 CALM      30.06S
ROLLA          CLEAR     66  63  90 SW9       30.07F
OSAGE BEACH    CLEAR     70  66  88 CALM      30.09S
SPRINGFIELD    CLEAR     68  60  75 S3        30.11S
BRANSON        PTCLDY    68  63  83 CALM      30.13F
JOPLIN         PTCLDY    66  57  72 CALM      30.10F
WEST PLAINS    PTCLDY    68  63  84 CALM      30.13S

$$

IAZ060-094-KSZ022-034>040-054-083-096-NEZ052-066-093-010700-
...KANSAS...SOUTHEAST NEBRASKA AND IOWA...

CITY           SKY/WX    TMP DP  RH WIND       PRES   REMARKS
TOPEKA         CLEAR     75  72  90 CALM      30.08R
6HR MIN TEMP:  74; 6HR MAX TEMP:  90;

MANHATTAN      CLEAR     72  70  93 CALM      30.07S
EMPORIA        CLEAR     72  69  90 S8        30.09R
CHANUTE        PTCLDY    71  69  93 SW3       30.09S
WICHITA        CLEAR     76  71  85 S6        30.10R
OMAHA          PTCLDY    74  70  87 SE7       30.08R
LINCOLN        CLEAR     68  64  87 NW3       30.09S
FALLS CITY     PTCLDY    72  68  87 S6        30.07S
LAMONI         PTCLDY    69  66  90 NE7       30.08F
DES MOINES     MOCLDY    74  64  71 CALM      30.07S

$$



USA.gov is the U.S. government's official web portal to all federal, state and local government web resources and services.